EN

Hourly Weather Dziubielewo

Today, 30 October, Friday

Time Temperature Precipitation Wind Pressure Humidity
00:00 +7°C° 0 mm 3 mps 757 mmHg 86%
01:00 +7°C° 0 mm 3 mps 757 mmHg 87%
02:00 +7°C° 0 mm 3 mps 757 mmHg 87%
03:00 +7°C° 0 mm 3 mps 757 mmHg 87%
04:00 +5°C° 0 mm 3 mps 756 mmHg 87%
05:00 +7°C° 0 mm 2 mps 756 mmHg 87%
06:00 +7°C° 0 mm 2 mps 756 mmHg 87%
07:00 +7°C° 0 mm 2 mps 756 mmHg 88%
08:00 +8°C° 0.2 mm 3 mps 756 mmHg 89%
09:00 +8°C° 0.2 mm 3 mps 756 mmHg 91%
10:00 +8°C° 0.2 mm 3 mps 755 mmHg 92%
11:00 +9°C° 1 mm 3 mps 755 mmHg 93%
12:00 +9°C° 1 mm 3 mps 755 mmHg 95%
13:00 +9°C° 1 mm 3 mps 755 mmHg 96%
14:00 +9°C° 1 mm 3 mps 755 mmHg 96%
15:00 +10°C° 1 mm 3 mps 755 mmHg 97%
16:00 +10°C° 1 mm 3 mps 755 mmHg 97%
17:00 +11°C° 0.3 mm 3 mps 755 mmHg 96%
18:00 +11°C° 0.3 mm 4 mps 755 mmHg 96%
19:00 +12°C° 0.3 mm 4 mps 755 mmHg 96%
20:00 +12°C° 0.5 mm 4 mps 756 mmHg 95%
21:00 +12°C° 0.5 mm 4 mps 756 mmHg 95%
22:00 +13°C° 0.5 mm 4 mps 757 mmHg 95%
23:00 +13°C° 0.2 mm 4 mps 757 mmHg 94%

Tomorrow, 31 October, Saturday

Time Temperature Precipitation Wind Pressure Humidity
00:00 +13°C° 0.2 mm 4 mps 758 mmHg 93%
01:00 +13°C° 0.2 mm 4 mps 758 mmHg 91%
02:00 +12°C° 0 mm 4 mps 758 mmHg 92%
03:00 +12°C° 0 mm 4 mps 759 mmHg 92%
04:00 +12°C° 0 mm 3 mps 759 mmHg 93%
05:00 +12°C° 0 mm 3 mps 759 mmHg 94%
06:00 +13°C° 0 mm 2 mps 760 mmHg 95%
07:00 +12°C° 0 mm 2 mps 760 mmHg 96%
08:00 +13°C° 0 mm 1 mps 760 mmHg 95%
09:00 +13°C° 0 mm 1 mps 761 mmHg 94%
10:00 +12°C° 0 mm 0 mps 761 mmHg 92%
11:00 +14°C° 0 mm 1 mps 761 mmHg 90%
12:00 +14°C° 0 mm 1 mps 761 mmHg 88%
13:00 +14°C° 0 mm 1 mps 761 mmHg 86%
14:00 +14°C° 0 mm 1 mps 761 mmHg 87%
15:00 +14°C° 0 mm 1 mps 761 mmHg 88%
16:00 +14°C° 0 mm 2 mps 760 mmHg 89%
17:00 +13°C° 0 mm 2 mps 760 mmHg 89%
18:00 +13°C° 0 mm 2 mps 760 mmHg 90%
19:00 +12°C° 0 mm 3 mps 760 mmHg 90%
20:00 +12°C° 0 mm 3 mps 760 mmHg 91%
21:00 +11°C° 0 mm 3 mps 760 mmHg 91%
22:00 +11°C° 0 mm 3 mps 760 mmHg 91%
23:00 +11°C° 0 mm 4 mps 760 mmHg 92%

Day after tomorrow, 1 November, Sunday

Time Temperature Precipitation Wind Pressure Humidity
00:00 +10°C° 0 mm 4 mps 759 mmHg 92%
01:00 +10°C° 0 mm 4 mps 759 mmHg 93%
02:00 +10°C° 0 mm 4 mps 759 mmHg 92%
03:00 +10°C° 0 mm 4 mps 758 mmHg 92%
04:00 +8°C° 0 mm 4 mps 758 mmHg 92%
05:00 +8°C° 0 mm 4 mps 758 mmHg 92%
06:00 +8°C° 0 mm 4 mps 757 mmHg 92%
07:00 +8°C° 0 mm 4 mps 757 mmHg 92%
08:00 +10°C° 0 mm 4 mps 757 mmHg 90%
09:00 +11°C° 0 mm 4 mps 757 mmHg 87%
10:00 +12°C° 0 mm 4 mps 757 mmHg 84%
11:00 +12°C° 0 mm 4 mps 756 mmHg 82%
12:00 +13°C° 0 mm 4 mps 756 mmHg 80%
13:00 +13°C° 0 mm 4 mps 756 mmHg 78%
14:00 +13°C° 0.6 mm 4 mps 755 mmHg 83%
15:00 +12°C° 0.6 mm 4 mps 755 mmHg 87%
16:00 +11°C° 0.6 mm 4 mps 754 mmHg 91%
17:00 +11°C° 0.2 mm 4 mps 754 mmHg 91%
18:00 +12°C° 0.2 mm 4 mps 754 mmHg 91%
19:00 +12°C° 0.2 mm 4 mps 754 mmHg 91%
20:00 +12°C° 0.1 mm 4 mps 754 mmHg 91%
21:00 +12°C° 0.1 mm 4 mps 753 mmHg 91%
22:00 +12°C° 0.1 mm 4 mps 753 mmHg 91%
23:00 +12°C° 0.1 mm 4 mps 753 mmHg 91%

2 November, Monday

Time Temperature Precipitation Wind Pressure Humidity
00:00 +12°C° 0.1 mm 4 mps 753 mmHg 91%
01:00 +13°C° 0.1 mm 4 mps 753 mmHg 91%
02:00 +13°C° 0 mm 4 mps 753 mmHg 91%
03:00 +13°C° 0 mm 4 mps 753 mmHg 92%
04:00 +13°C° 0 mm 3 mps 753 mmHg 92%
05:00 +13°C° 0 mm 4 mps 753 mmHg 92%
06:00 +13°C° 0 mm 4 mps 752 mmHg 93%
07:00 +13°C° 0 mm 4 mps 752 mmHg 93%
08:00 +14°C° 0.2 mm 5 mps 752 mmHg 91%
09:00 +14°C° 0.2 mm 5 mps 752 mmHg 90%
10:00 +14°C° 0.2 mm 5 mps 752 mmHg 88%
11:00 +14°C° 0.1 mm 5 mps 752 mmHg 88%
12:00 +15°C° 0.1 mm 5 mps 752 mmHg 88%
13:00 +15°C° 0.1 mm 5 mps 752 mmHg 89%
14:00 +15°C° 0 mm 4 mps 752 mmHg 87%
15:00 +17°C° 0 mm 4 mps 752 mmHg 86%
16:00 +17°C° 0 mm 4 mps 751 mmHg 84%
17:00 +17°C° 0 mm 4 mps 752 mmHg 84%
18:00 +17°C° 0 mm 4 mps 752 mmHg 83%
19:00 +17°C° 0 mm 4 mps 752 mmHg 83%
20:00 +17°C° 0 mm 4 mps 752 mmHg 82%
21:00 +16°C° 0 mm 5 mps 752 mmHg 82%
22:00 +16°C° 0 mm 5 mps 752 mmHg 81%
23:00 +16°C° 0 mm 5 mps 752 mmHg 83%

3 November, Tuesday

Time Temperature Precipitation Wind Pressure Humidity
00:00 +15°C° 0 mm 5 mps 752 mmHg 84%
01:00 +15°C° 0 mm 5 mps 752 mmHg 85%
02:00 +15°C° 0 mm 5 mps 753 mmHg 85%
03:00 +15°C° 0 mm 5 mps 753 mmHg 85%
04:00 +15°C° 0 mm 5 mps 753 mmHg 85%
05:00 +15°C° 0 mm 5 mps 754 mmHg 80%
06:00 +14°C° 0 mm 5 mps 755 mmHg 76%
07:00 +13°C° 0 mm 5 mps 756 mmHg 71%
08:00 +13°C° 0 mm 5 mps 757 mmHg 68%
09:00 +13°C° 0 mm 5 mps 758 mmHg 64%
10:00 +12°C° 0 mm 5 mps 759 mmHg 61%
11:00 +13°C° 0 mm 5 mps 759 mmHg 56%
12:00 +13°C° 0 mm 5 mps 760 mmHg 51%
13:00 +13°C° 0 mm 5 mps 760 mmHg 46%
14:00 +12°C° 0 mm 4 mps 760 mmHg 50%
15:00 +11°C° 0 mm 3 mps 760 mmHg 54%
16:00 +12°C° 0 mm 2 mps 761 mmHg 59%
17:00 +11°C° 0 mm 1 mps 761 mmHg 62%
18:00 +10°C° 0 mm 1 mps 761 mmHg 65%
19:00 +10°C° 0 mm 1 mps 762 mmHg 68%
20:00 +10°C° 0 mm 1 mps 762 mmHg 68%
21:00 +9°C° 0 mm 1 mps 762 mmHg 68%
22:00 +9°C° 0 mm 1 mps 762 mmHg 68%
23:00 +9°C° 0 mm 1 mps 763 mmHg 68%

4 November, Wednesday

Time Temperature Precipitation Wind Pressure Humidity
00:00 +9°C° 0 mm 1 mps 763 mmHg 69%
01:00 +9°C° 0 mm 1 mps 763 mmHg 69%
02:00 +9°C° 0 mm 1 mps 763 mmHg 69%
03:00 +9°C° 0 mm 1 mps 763 mmHg 69%
04:00 +9°C° 0 mm 1 mps 763 mmHg 69%
05:00 +9°C° 0 mm 1 mps 763 mmHg 70%
06:00 +9°C° 0 mm 1 mps 764 mmHg 71%
07:00 +9°C° 0 mm 1 mps 764 mmHg 71%
08:00 +10°C° 0 mm 1 mps 764 mmHg 69%
09:00 +10°C° 0 mm 1 mps 765 mmHg 67%
10:00 +11°C° 0 mm 1 mps 765 mmHg 64%
11:00 +10°C° 0 mm 0 mps 765 mmHg 62%
12:00 +11°C° 0 mm 0 mps 766 mmHg 60%
13:00 +11°C° 0 mm 0 mps 766 mmHg 58%
14:00 +11°C° 0 mm 0 mps 766 mmHg 61%
15:00 +10°C° 0 mm 0 mps 766 mmHg 64%
16:00 +10°C° 0 mm 0 mps 767 mmHg 67%
17:00 +10°C° 0 mm 1 mps 767 mmHg 70%
18:00 +9°C° 0 mm 1 mps 768 mmHg 73%
19:00 +8°C° 0 mm 1 mps 768 mmHg 77%
20:00 +8°C° 0 mm 1 mps 769 mmHg 79%
21:00 +8°C° 0 mm 1 mps 769 mmHg 81%
22:00 +7°C° 0 mm 1 mps 769 mmHg 83%
23:00 +7°C° 0 mm 1 mps 770 mmHg 85%
Show more